Time,TemperatureF,DewpointF,PressureIn,WindDirection,WindDirectionDegrees,WindSpeedMPH,WindSpeedGustMPH,Humidity,HourlyPrecipIn,Conditions,Clouds,dailyrainin,SoftwareType,DateUTC
2013-08-23 00:06:00,70.9,68.0,29.99,East,89,0.0,0.0,91,0.00,,,0.00,weatherlink.com 1.10,2013-08-23 05:06:00,
2013-08-23 00:21:00,70.8,68.0,29.99,East,89,0.0,2.0,91,0.00,,,0.00,weatherlink.com 1.10,2013-08-23 05:21:00,
2013-08-23 00:36:00,70.7,68.0,29.99,East,89,1.0,6.0,90,0.00,,,0.00,weatherlink.com 1.10,2013-08-23 05:36:00,
2013-08-23 00:51:00,70.5,67.0,29.99,East,89,0.0,5.0,89,0.00,,,0.00,weatherlink.com 1.10,2013-08-23 05:51:00,
2013-08-23 01:06:00,70.2,67.0,29.99,East,89,2.0,3.0,89,0.00,,,0.00,weatherlink.com 1.10,2013-08-23 06:06:00,
2013-08-23 01:21:00,70.5,67.0,29.99,East,89,0.0,5.0,89,0.00,,,0.00,weatherlink.com 1.10,2013-08-23 06:21:00,
2013-08-23 01:36:00,70.9,67.0,29.99,ESE,116,4.0,5.0,88,0.00,,,0.00,weatherlink.com 1.10,2013-08-23 06:36:00,
2013-08-23 01:51:00,70.8,67.0,29.99,ESE,116,0.0,0.0,87,0.00,,,0.00,weatherlink.com 1.10,2013-08-23 06:51:00,
2013-08-23 02:06:00,70.8,67.0,29.99,ESE,116,0.0,0.0,88,0.00,,,0.00,weatherlink.com 1.10,2013-08-23 07:06:00,
2013-08-23 02:21:00,70.6,67.0,29.99,ESE,116,1.0,1.0,88,0.00,,,0.00,weatherlink.com 1.10,2013-08-23 07:21:00,
2013-08-23 02:36:00,70.6,67.0,29.99,ESE,116,0.0,0.0,88,0.00,,,0.00,weatherlink.com 1.10,2013-08-23 07:36:00,
2013-08-23 02:51:00,70.6,67.0,29.99,ESE,116,0.0,0.0,88,0.00,,,0.00,weatherlink.com 1.10,2013-08-23 07:51:00,
2013-08-23 03:06:00,70.5,67.0,29.99,ESE,116,0.0,0.0,88,0.00,,,0.00,weatherlink.com 1.10,2013-08-23 08:06:00,
2013-08-23 03:21:00,70.3,67.0,29.99,ESE,116,0.0,0.0,89,0.00,,,0.00,weatherlink.com 1.10,2013-08-23 08:21:00,
2013-08-23 03:36:00,70.1,67.0,29.99,ESE,116,0.0,0.0,89,0.00,,,0.00,weatherlink.com 1.10,2013-08-23 08:36:00,
2013-08-23 03:51:00,69.8,67.0,29.99,ESE,116,0.0,1.0,90,0.00,,,0.00,weatherlink.com 1.10,2013-08-23 08:51:00,
2013-08-23 04:06:00,69.2,67.0,29.99,ESE,116,0.0,0.0,91,0.00,,,0.00,weatherlink.com 1.10,2013-08-23 09:06:00,
2013-08-23 04:21:00,68.8,66.0,29.99,ESE,116,0.0,3.0,92,0.00,,,0.00,weatherlink.com 1.10,2013-08-23 09:21:00,
2013-08-23 04:36:00,68.6,66.0,29.99,ESE,116,3.0,5.0,92,0.00,,,0.00,weatherlink.com 1.10,2013-08-23 09:36:00,
2013-08-23 04:51:00,68.4,66.0,29.99,ESE,116,0.0,5.0,93,0.00,,,0.00,weatherlink.com 1.10,2013-08-23 09:51:00,
2013-08-23 05:06:00,68.3,66.0,29.98,ESE,116,0.0,0.0,93,0.00,,,0.00,weatherlink.com 1.10,2013-08-23 10:06:00,
2013-08-23 05:22:00,68.1,66.0,29.98,ESE,116,0.0,0.0,94,0.00,,,0.00,weatherlink.com 1.10,2013-08-23 10:22:00,
2013-08-23 05:37:00,68.0,66.0,29.98,ESE,116,3.0,5.0,94,0.00,,,0.00,weatherlink.com 1.10,2013-08-23 10:37:00,
2013-08-23 05:52:00,68.1,66.0,29.98,ESE,116,0.0,5.0,94,0.00,,,0.00,weatherlink.com 1.10,2013-08-23 10:52:00,
2013-08-23 06:07:00,68.0,66.0,29.98,ESE,116,0.0,2.0,94,0.00,,,0.00,weatherlink.com 1.10,2013-08-23 11:07:00,
2013-08-23 06:22:00,67.6,66.0,29.98,ESE,116,0.0,0.0,94,0.00,,,0.00,weatherlink.com 1.10,2013-08-23 11:22:00,
2013-08-23 06:37:00,67.3,66.0,29.98,ESE,116,0.0,5.0,94,0.00,,,0.00,weatherlink.com 1.10,2013-08-23 11:37:00,
2013-08-23 06:52:00,67.5,66.0,29.98,ESE,116,0.0,0.0,95,0.00,,,0.00,weatherlink.com 1.10,2013-08-23 11:52:00,
2013-08-23 07:07:00,67.6,66.0,29.98,ESE,116,2.0,3.0,95,0.00,,,0.00,weatherlink.com 1.10,2013-08-23 12:07:00,
2013-08-23 07:22:00,67.4,66.0,29.98,ESE,116,4.0,7.0,95,0.00,,,0.00,weatherlink.com 1.10,2013-08-23 12:22:00,
2013-08-23 07:37:00,67.7,66.0,29.99,ESE,116,3.0,5.0,95,0.00,,,0.00,weatherlink.com 1.10,2013-08-23 12:37:00,
2013-08-23 07:52:00,68.0,67.0,29.99,ESE,116,4.0,4.0,95,0.00,,,0.00,weatherlink.com 1.10,2013-08-23 12:52:00,
2013-08-23 08:07:00,68.7,67.0,29.99,ESE,116,0.0,3.0,95,0.00,,,0.00,weatherlink.com 1.10,2013-08-23 13:07:00,
2013-08-23 08:22:00,69.9,68.0,30.00,ESE,116,0.0,3.0,94,0.00,,,0.00,weatherlink.com 1.10,2013-08-23 13:22:00,
2013-08-23 08:37:00,71.3,69.0,30.00,ESE,116,2.0,5.0,92,0.00,,,0.00,weatherlink.com 1.10,2013-08-23 13:37:00,
2013-08-23 08:53:00,72.0,69.0,30.00,ESE,116,2.0,4.0,91,0.00,,,0.00,weatherlink.com 1.10,2013-08-23 13:53:00,
2013-08-23 09:07:00,72.4,69.0,30.00,ESE,114,3.0,9.0,90,0.00,,,0.00,weatherlink.com 1.10,2013-08-23 14:07:00,
2013-08-23 09:22:00,73.2,70.0,30.00,ESE,120,4.0,8.0,89,0.00,,,0.00,weatherlink.com 1.10,2013-08-23 14:22:00,
2013-08-23 09:37:00,74.6,71.0,30.00,SE,138,2.0,8.0,87,0.00,,,0.00,weatherlink.com 1.10,2013-08-23 14:37:00,
2013-08-23 09:52:00,76.6,72.0,29.99,SSE,153,4.0,6.0,84,0.00,,,0.00,weatherlink.com 1.10,2013-08-23 14:52:00,
2013-08-23 10:07:00,77.5,72.0,29.99,ESE,120,0.0,5.0,83,0.00,,,0.00,weatherlink.com 1.10,2013-08-23 15:07:00,
2013-08-23 10:22:00,77.5,72.0,29.99,SE,138,6.0,8.0,82,0.00,,,0.00,weatherlink.com 1.10,2013-08-23 15:22:00,
2013-08-23 10:37:00,78.4,73.0,29.98,East,86,5.0,8.0,82,0.00,,,0.00,weatherlink.com 1.10,2013-08-23 15:37:00,
2013-08-23 10:52:00,79.2,73.0,29.98,East,96,6.0,8.0,82,0.00,,,0.00,weatherlink.com 1.10,2013-08-23 15:52:00,
2013-08-23 11:07:00,80.2,73.0,29.98,SE,142,4.0,11.0,78,0.00,,,0.00,weatherlink.com 1.10,2013-08-23 16:07:00,
2013-08-23 11:22:00,80.7,73.0,29.98,ESE,121,4.0,10.0,76,0.00,,,0.00,weatherlink.com 1.10,2013-08-23 16:22:00,
2013-08-23 11:37:00,81.4,73.0,29.98,South,173,6.0,10.0,75,0.00,,,0.00,weatherlink.com 1.10,2013-08-23 16:37:00,
2013-08-23 11:52:00,82.7,73.0,29.97,SSE,161,7.0,10.0,72,0.00,,,0.00,weatherlink.com 1.10,2013-08-23 16:52:00,
2013-08-23 12:07:00,83.2,73.0,29.97,South,169,7.0,14.0,72,0.00,,,0.00,weatherlink.com 1.10,2013-08-23 17:07:00,
2013-08-23 12:22:00,83.5,73.0,29.96,ESE,107,9.0,12.0,71,0.00,,,0.00,weatherlink.com 1.10,2013-08-23 17:22:00,
2013-08-23 12:37:00,83.9,74.0,29.96,SE,132,9.0,12.0,71,0.00,,,0.00,weatherlink.com 1.10,2013-08-23 17:37:00,
2013-08-23 12:52:00,84.5,73.0,29.95,SE,135,3.0,13.0,68,0.00,,,0.00,weatherlink.com 1.10,2013-08-23 17:52:00,
2013-08-23 13:07:00,85.0,73.0,29.95,SSE,163,0.0,13.0,68,0.00,,,0.00,weatherlink.com 1.10,2013-08-23 18:07:00,
2013-08-23 13:22:00,85.7,73.0,29.94,South,179,3.0,11.0,66,0.00,,,0.00,weatherlink.com 1.10,2013-08-23 18:22:00,
2013-08-23 13:38:00,85.5,72.0,29.94,SE,130,5.0,11.0,65,0.00,,,0.00,weatherlink.com 1.10,2013-08-23 18:38:00,
2013-08-23 13:53:00,86.0,72.0,29.93,South,181,2.0,12.0,64,0.00,,,0.00,weatherlink.com 1.10,2013-08-23 18:53:00,
2013-08-23 14:08:00,86.0,71.0,29.93,East,100,7.0,16.0,62,0.00,,,0.00,weatherlink.com 1.10,2013-08-23 19:08:00,
2013-08-23 14:23:00,85.8,72.0,29.93,ESE,112,2.0,12.0,63,0.00,,,0.00,weatherlink.com 1.10,2013-08-23 19:23:00,
2013-08-23 14:38:00,86.9,71.0,29.93,SE,142,7.0,16.0,59,0.00,,,0.00,weatherlink.com 1.10,2013-08-23 19:38:00,
2013-08-23 16:20:00,86.9,67.0,29.92,South,171,7.0,16.0,52,0.00,,,0.00,weatherlink.com 1.10,2013-08-23 21:20:00,
2013-08-23 16:38:00,87.2,69.0,29.92,SSE,148,11.0,17.0,55,0.00,,,0.00,weatherlink.com 1.10,2013-08-23 21:38:00,
2013-08-23 16:53:00,86.7,69.0,29.91,South,172,11.0,15.0,55,0.00,,,0.00,weatherlink.com 1.10,2013-08-23 21:53:00,
2013-08-23 17:08:00,86.3,69.0,29.91,SSE,152,8.0,15.0,56,0.00,,,0.00,weatherlink.com 1.10,2013-08-23 22:08:00,
2013-08-23 17:23:00,85.5,68.0,29.91,SSE,157,13.0,13.0,57,0.00,,,0.00,weatherlink.com 1.10,2013-08-23 22:23:00,
2013-08-23 17:38:00,85.4,70.0,29.91,SSE,151,5.0,12.0,60,0.00,,,0.00,weatherlink.com 1.10,2013-08-23 22:38:00,
2013-08-23 17:53:00,85.2,71.0,29.91,SSE,164,3.0,13.0,62,0.00,,,0.00,weatherlink.com 1.10,2013-08-23 22:53:00,
2013-08-23 18:08:00,84.7,70.0,29.91,SSE,163,6.0,14.0,62,0.00,,,0.00,weatherlink.com 1.10,2013-08-23 23:08:00,
2013-08-23 18:23:00,84.4,70.0,29.90,SE,140,6.0,11.0,62,0.00,,,0.00,weatherlink.com 1.10,2013-08-23 23:23:00,
2013-08-23 18:38:00,84.0,70.0,29.90,South,170,1.0,12.0,63,0.00,,,0.00,weatherlink.com 1.10,2013-08-23 23:38:00,
2013-08-23 18:53:00,83.6,70.0,29.90,SSE,154,2.0,10.0,64,0.00,,,0.00,weatherlink.com 1.10,2013-08-23 23:53:00,
2013-08-23 19:08:00,83.3,70.0,29.90,SE,138,4.0,10.0,64,0.00,,,0.00,weatherlink.com 1.10,2013-08-24 00:08:00,
2013-08-23 19:23:00,82.8,70.0,29.89,SE,146,3.0,8.0,65,0.00,,,0.00,weatherlink.com 1.10,2013-08-24 00:23:00,
2013-08-23 19:38:00,82.1,70.0,29.89,ESE,115,7.0,8.0,66,0.00,,,0.00,weatherlink.com 1.10,2013-08-24 00:38:00,
2013-08-23 19:53:00,81.6,70.0,29.89,SE,127,5.0,7.0,68,0.00,,,0.00,weatherlink.com 1.10,2013-08-24 00:53:00,
2013-08-23 20:08:00,81.2,70.0,29.89,ESE,123,2.0,8.0,68,0.00,,,0.00,weatherlink.com 1.10,2013-08-24 01:08:00,
2013-08-23 20:23:00,80.9,70.0,29.88,SE,127,7.0,8.0,69,0.00,,,0.00,weatherlink.com 1.10,2013-08-24 01:23:00,
2013-08-23 20:38:00,80.5,69.0,29.88,SSE,150,9.0,11.0,69,0.00,,,0.00,weatherlink.com 1.10,2013-08-24 01:38:00,
2013-08-23 20:53:00,80.3,69.0,29.89,ESE,119,4.0,10.0,69,0.00,,,0.00,weatherlink.com 1.10,2013-08-24 01:53:00,
2013-08-23 21:08:00,80.1,70.0,29.89,ESE,119,2.0,10.0,70,0.00,,,0.00,weatherlink.com 1.10,2013-08-24 02:08:00,
2013-08-23 21:23:00,80.0,70.0,29.89,ESE,123,5.0,10.0,71,0.00,,,0.00,weatherlink.com 1.10,2013-08-24 02:23:00,
2013-08-23 21:38:00,79.8,70.0,29.89,SE,134,7.0,10.0,72,0.00,,,0.00,weatherlink.com 1.10,2013-08-24 02:38:00,
2013-08-23 21:53:00,79.4,70.0,29.90,SSE,159,2.0,10.0,73,0.00,,,0.00,weatherlink.com 1.10,2013-08-24 02:53:00,
2013-08-23 22:08:00,79.0,70.0,29.90,SE,143,4.0,9.0,74,0.00,,,0.00,weatherlink.com 1.10,2013-08-24 03:08:00,
2013-08-23 22:23:00,78.8,70.0,29.90,SE,141,6.0,9.0,75,0.00,,,0.00,weatherlink.com 1.10,2013-08-24 03:23:00,
2013-08-23 22:38:00,78.8,70.0,29.91,ESE,115,7.0,11.0,75,0.00,,,0.00,weatherlink.com 1.10,2013-08-24 03:38:00,
2013-08-23 22:53:00,78.9,70.0,29.91,SE,134,6.0,11.0,75,0.00,,,0.00,weatherlink.com 1.10,2013-08-24 03:53:00,
2013-08-23 23:08:00,78.7,70.0,29.91,SE,128,6.0,9.0,75,0.00,,,0.00,weatherlink.com 1.10,2013-08-24 04:08:00,
2013-08-23 23:23:00,78.5,70.0,29.91,SE,141,6.0,12.0,75,0.00,,,0.00,weatherlink.com 1.10,2013-08-24 04:23:00,
2013-08-23 23:38:00,78.5,70.0,29.91,SE,127,6.0,11.0,75,0.00,,,0.00,weatherlink.com 1.10,2013-08-24 04:38:00,
2013-08-23 23:53:00,78.5,70.0,29.91,SSE,148,4.0,12.0,75,0.00,,,0.00,weatherlink.com 1.10,2013-08-24 04:53:00,